OpenBCM V1.08-5-g2f4a (Linux)

Packet Radio Mailbox

IZ3LSV

[San Dona' di P. JN]

 Login: GUEST





  
I0OJJ  > KEPS     18.05.25 02:44l 363 Lines 17238 Bytes #59 (0) @ AMSAT
BID : ORB25138.1
Read: GUEST
Subj: 2Line Orbital Elements 25138.AMSAT
Path: IZ3LSV<IK6IHL<IK7NXU<HB9ON<DK0WUE<PD0LPM<PI8ZTM<IR0AAB<I0OJJ<I0OJJ
Sent: 250518/0025z @:I0OJJ.ITA.EU [Rome] obcm1.08-10-g596e

>From i0ojj%i0ojj.ita.eu@i0ojj.ampr.org Sun May 18 02:25:08 2025
Received: from i0ojj.ampr.org by i0ojj.ampr.org (JNOS2.0p.8) with SMTP
	id AA17031980 ; Sun, 18 May 2025 02:25:08 +0200
Message-Id: <ORB25138.1@i0ojj.bbs>
>From: i0ojj@i0ojj.ita.eu
X-JNOS-User-Port: Telnet   (i0ojj @ 44.134.109.10)  -> Sending message

From: I0OJJ @ I0OJJ.ITA.EU (Gustavo)
To:   KEPS @ AMSAT
X-Info: This message was generated automatically


QST de W1STR

AMSAT Orbital Elements for Amateur Satellites in TLE Format
>From Orbital Analysis Office
New England Sci-Tech STEM Education Center
Natick, MA May 18, 2025
To all radio amateurs


These element sets describe the orbits of various satellites 
in use by the amateur radio community. For details see:
www.amsat.org/keplerian-elements-formats/

A daily update of element sets is available at:
www.amsat.org/tle/daily-bulletin.txt
or without bulletin text:
www.amsat.org/tle/dailytle.txt


AO-07
1 07530U 74089B   25137.76849174 -.00000041  00000-0  31327-4 0  9993
2 07530 101.9936 141.7892 0012325 163.9228   9.2720 12.53689093311205
UO-11
1 14781U 84021B   25137.48959193  .00001770  00000-0  19233-3 0  9998
2 14781  97.7529 104.3186 0009246  59.0928 301.1198 14.89320679198201
AO-27
1 22825U 93061C   25137.56013465  .00000168  00000-0  81173-4 0  9995
2 22825  98.7379 198.9991 0008553 172.6981 187.4328 14.30791723650422
FO-29
1 24278U 96046B   25137.31537287  .00000005  00000-0  39957-4 0  9994
2 24278  98.5783  34.2665 0350732  43.0050 319.7942 13.53247573419620
NOAA-15
1 25338U 98030A   25137.81266626  .00000297  00000-0  13982-3 0  9990
2 25338  98.5365 163.4904 0011398  69.3411 290.8991 14.26966762405154
GO-32
1 25397U 98043D   25137.50977342  .00000122  00000-0  72885-4 0  9994
2 25397  98.9693 116.1491 0000266 312.1164  47.9991 14.24309392395000
ISS
1 25544U 98067A   25137.89460689  .00010072  00000-0  18692-3 0  9997
2 25544  51.6353  97.1434 0002280 120.7001 239.4212 15.49583270510469
NO-44
1 26931U 01043C   25137.45345142  .00000164  00000-0  92396-4 0  9999
2 26931  67.0499 187.6337 0005861 274.0812  85.9620 14.31723402233798
SO-50
1 27607U 02058C   25137.67075666  .00001550  00000-0  21065-3 0  9996
2 27607  64.5530 271.2461 0053608 339.2921  20.6011 14.81567879206049
CO-55
1 27844U 03031E   25137.49228267  .00000420  00000-0  20229-3 0  9994
2 27844  98.6763 146.0636 0008408 252.2281 107.7980 14.23978815135351
CO-57
1 27848U 03031J   25137.50022523  .00000353  00000-0  17495-3 0  9993
2 27848  98.6792 146.0944 0008240 272.1467  87.8767 14.23315817135088
RS-22
1 27939U 03042A   25137.84845630  .00001568  00000-0  25619-3 0  9991
2 27939  98.3267 306.7543 0012735  83.4466  45.3193 14.72298218157488
NOAA-18
1 28654U 05018A   25137.83070900  .00000277  00000-0  17006-3 0  9997
2 28654  98.8420 217.5623 0014138 189.5428 170.5477 14.13599194 30536
CO-58
1 28895U 05043F   25137.32247933  .00002055  00000-0  34328-3 0  9990
2 28895  98.2468 281.3875 0014897  25.8258 334.3688 14.70940469 43527
CO-65
1 32785U 08021C   25137.59037242  .00007167  00000-0  51982-3 0  9995
2 32785  97.7851 108.5895 0008151 295.1405  64.8975 15.04209713925626
AAUSAT2
1 32788U 08021F   25137.49926361  .02282645  57207-2  24613-2 0  9997
2 32788  97.5797 136.6957 0009000 182.2605 177.8639 16.11385603929773
CO-66
1 32791U 08021J   25137.57314008  .00016135  00000-0  79223-3 0  9991
2 32791  97.7274 117.1135 0001916 219.7064 140.4029 15.18161257927000
RS-30
1 32953U 08025A   25137.78739711  .00000054  00000-0  31649-3 0  9993
2 32953  82.5036 241.3490 0020556  96.5959 263.7461 12.43164278770700
NOAA-19
1 33591U 09005A   25137.83348369  .00000254  00000-0  15944-3 0  9994
2 33591  98.9981 202.4089 0014737  70.5027 289.7736 14.13363099838892
SRMSAT
1 37841U 11058D   25137.84384659  .00000470  00000-0  11168-3 0  9994
2 37841  19.9727 292.1368 0011712 174.5686 306.3864 14.11429095702117
ZACUBE-1
1 39417U 13066B   25137.85300304  .00005449  00000-0  47563-3 0  9991
2 39417  97.7794  94.9939 0045629 126.3557 234.1888 14.96431681621519
Delfi-N3xt
1 39428U 13066N   25137.49938243  .00010005  00000-0  10205-2 0  9998
2 39428  97.8356  55.4144 0087266  76.7980 284.2954 14.88015353615649
GOMX-1
1 39430U 13066Q   25137.84996112  .00001997  00000-0  31738-3 0  9994
2 39430  97.6860 357.9079 0131114 265.2204  93.4019 14.67557462612078
LO-74
1 39440U 13066AA  25137.77528394  .00004856  00000-0  49515-3 0  9999
2 39440  97.8485  82.4979 0060494 255.0772 104.3742 14.89785612619247
AO-73
1 39444U 13066AE  25137.43253946  .00009270  00000-0  69770-3 0  9994
2 39444  97.7829  99.2630 0043486 104.2768 256.3291 15.01986470620119
DTUSAT-2
1 40030U 14033W   25137.86496373  .00009765  00000-0  63873-3 0  9999
2 40030  98.0544 108.5935 0010567 129.6442 230.5718 15.07956256593488
EO-80
1 40032U 14033Y   25137.35565995  .00008184  00000-0  53521-3 0  9995
2 40032  98.0425 107.7472 0010657  81.3698 278.8736 15.08020704592870
LILACSAT-2
1 40908U 15049K   25137.84753023  .00014752  00000-0  39124-3 0  9991
2 40908  97.5072 157.6528 0007757 233.0485 127.0050 15.38392931534739
IO-86
1 40931U 15052B   25038.81889873  .00001817  00000-0  15548-3 0  9993
2 40931   6.0001 108.1159 0012838 187.7041 172.2889 14.78568669506492
Horyu-4
1 41340U 16012D   25137.73997338  .00030917  00000-0  85154-3 0  9995
2 41340  30.9971 285.4254 0006596 171.2942 188.7818 15.35909569509271
Lapan A3
1 41603U 16040E   25137.86828052  .00004437  00000-0  15646-3 0  9995
2 41603  97.1376 143.3699 0010835   1.2785 358.8482 15.29705555494317
CAS-2T
1 41847U 16066G   25137.45940250  .00001189  00000-0  17966-3 0  9991
2 41847  98.4204 212.1219 0345189 248.3802 108.0291 14.43414397447688
CAS-4B
1 42759U 17034B   25137.89420492  .00078219  00000-0  91178-3 0  9994
2 42759  43.0073  96.8046 0018145 135.8460 224.3856 15.60516204439056
CAS-4A
1 42761U 17034D   25137.88045230  .00080099  00000-0  89466-3 0  9995
2 42761  43.0111  94.2697 0019443 140.2503 219.9790 15.61580397439070
TechnoSat
1 42829U 17042E   25137.72137500  .00004125  00000-0  32190-3 0  9992
2 42829  97.3935 307.5268 0013844   3.7879 356.3448 15.01595824427295
AO-91
1 43017U 17073E   25137.38165385  .00009468  00000-0  49066-3 0  9995
2 43017  97.5285   8.7444 0172300 245.4428 112.8756 15.04374034405721
S-Net D
1 43186U 18014G   25137.46403296  .00006713  00000-0  39878-3 0  9993
2 43186  97.5643  40.6078 0007694 313.4547  46.6042 15.11603581398885
S-Net B
1 43187U 18014H   25137.46912699  .00006899  00000-0  40991-3 0  9999
2 43187  97.5650  40.5835 0008312 306.6616  53.3850 15.11584260398887
S-Net A
1 43188U 18014J   25137.66308007  .00006857  00000-0  40712-3 0  9999
2 43188  97.5657  40.9225 0008164 307.3440  52.7046 15.11611808398913
S-Net C
1 43189U 18014K   25137.47146383  .00006998  00000-0  41565-3 0  9999
2 43189  97.5672  40.7432 0009610 298.0513  61.9744 15.11581225397435
Ten-Koh
1 43677U 18084G   25137.45628838  .00003038  00000-0  24637-3 0  9999
2 43677  98.0892 308.7951 0005964   0.7890 359.3341 15.00471735356775
PO-101
1 43678U 18084H   25137.81526029  .00002938  00000-0  25258-3 0  9997
2 43678  98.1017 313.0738 0007919   9.0513 351.0849 14.98227460356978
QO-100
1 43700U 18090A   25137.56989300  .00000156  00000-0  00000-0 0  9992
2 43700   0.0166 289.6426 0002121 160.5359  16.3138  1.00269364 23717
MinXSS-2
1 43758U 18099A   25137.43537499  .00020826  00000-0  83468-3 0  9996
2 43758  97.5022 203.4072 0011097 229.8190 130.2076 15.24996138353447
AO-95
1 43770U 18099N   25137.10076945  .00008976  00000-0  45951-3 0  9995
2 43770  97.4923 195.4515 0009061 295.7904  64.2394 15.16809673352991
RANGE-A
1 43773U 18099R   25137.59042798  .00006049  00000-0  38732-3 0  9998
2 43773  97.4497 186.6599 0009470 269.8462  90.1682 15.08883828352756
MOVE-II
1 43780U 18099Y   25137.60577617  .00206037  00000-0  18875-2 0  9995
2 43780  97.4657 211.6362 0006546 205.7687 154.3248 15.67106285354199
SNUSat 2
1 43782U 18099AA  25137.87739548  .00010321  00000-0  56662-3 0  9995
2 43782  97.4609 193.1541 0011118 225.5185 134.5139 15.14271621353068
SnugLite
1 43784U 18099AC  25137.59780813  .00012172  00000-0  61624-3 0  9997
2 43784  97.4422 192.3952 0002676 205.7141 154.3960 15.17144254353157
ITASat 1
1 43786U 18099AE  25137.59341316  .00008038  00000-0  46248-3 0  9991
2 43786  97.4573 192.4522 0012617 286.6405  73.3441 15.12647723352985
EAGLET 1
1 43790U 18099AJ  25137.87140952  .00005297  00000-0  33983-3 0  9996
2 43790  97.4777 192.7540 0010281 266.0670  93.9383 15.08864801352649
ESEO
1 43792U 18099AL  25137.55984151  .00002456  00000-0  18904-3 0  9990
2 43792  97.4462 186.0186 0011732 241.6403 118.3640 15.02513217352362
CSIM
1 43793U 18099AM  25137.19752114  .00202546  00000-0  19070-2 0  9999
2 43793  97.4828 213.4377 0007895 203.4213 156.6688 15.66422922353973
JO-97
1 43803U 18099AX  25137.15706891  .00014265  00000-0  65868-3 0  9994
2 43803  97.4671 196.4504 0006865 214.0249 146.0547 15.20295124353212
Suomi 100
1 43804U 18099AY  25137.39809367  .00012418  00000-0  61364-3 0  9998
2 43804  97.4737 196.0500 0011627 221.4861 138.5491 15.17935481353185
ISAT
1 43879U 18111D   25137.33456304  .00024197  00000-0  85884-3 0  9998
2 43879  97.5971  51.2290 0006420 283.8799  76.1726 15.29029847348122
UWE-4
1 43880U 18111E   25137.25537335  .00018248  00000-0  72708-3 0  9996
2 43880  97.5915  49.7857 0010107 297.9066  62.1148 15.25231563350079
Sparrow
1 43881U 18111F   25137.33479936  .00027498  00000-0  94106-3 0  9991
2 43881  97.6111  54.0183 0005616 340.5031  19.5994 15.30197127350232
Prox-1
1 44339U 19036A   25137.55486195  .00014423  00000-0  18501-2 0  9994
2 44339  23.9961 212.9908 0007366 164.5438 195.5285 14.79502012314698
